Location: ????????
(37.6846°N, 24.0673°E)
Time: 00:48:05
(UTC+00:00)

Daily predictions for brighter satellites

Satellite Brightness Start Highest point End
(mag) Time Altitude Azimuth Time Altitude Azimuth Time Altitude Azimuth
Cosmos 2016 Rocket 3.8 00:09:03 64° S 00:10:05 88° E 00:16:19 10° N
IRAS Rocket 4.1 00:11:58 69° WSW 00:12:02 69° WSW 00:17:31 10° NNW
SL-16 R/B 2.4 00:11:55 54° SSE 00:13:29 89° WSW 00:19:47 10° NNW
Meteor 1-5 Rocket 4.2 00:13:46 65° SSE 00:14:35 80° E 00:20:24 10° NNE
Lacrosse 5 4.4 00:11:52 10° WNW 00:14:38 14° NNW 00:17:24 10° N
Cosmos 1864 Rocket 4.4 00:17:42 59° S 00:18:59 86° E 00:25:08 10° N
Meteor 2-9 4.5 00:19:51 69° WSW 00:20:13 72° W 00:25:37 10° N
Okean 3 3.8 00:18:07 10° N 00:22:15 59° E 00:22:19 59° E
Meteor 1-11 Rocket 3.9 00:21:41 49° SSE 00:22:55 63° E 00:28:22 10° NNE
MOZ.5/SAFIR/RUBIN 5/SL-8 4.4 00:25:51 44° WNW 00:25:51 44° WNW 00:29:44 10° NNW
Meteor 2-4 Rocket 3.7 00:19:15 10° N 00:25:12 85° W 00:26:30 57° S
Cosmos 1190 Rocket 4.1 00:26:21 57° W 00:26:44 59° WNW 00:31:55 10° N
Cosmos 1869 Rocket 4.3 00:27:34 42° NW 00:27:34 42° NW 00:31:06 10° N
Cosmos 1536 3.4 00:27:10 52° E 00:27:10 52° E 00:31:06 10° NNE
Cosmos 1954 Rocket 3.9 00:28:05 66° S 00:28:48 82° ESE 00:34:07 10° NNE
Cosmos 1697 Rocket 3.0 00:30:49 10° NNW 00:36:24 63° ENE 00:40:41 17° SE
Cosmos 921 Rocket 4.3 00:33:49 10° N 00:37:55 38° ENE 00:40:28 20° SE
Cosmos 1437 Rocket 3.6 00:35:04 10° NNW 00:38:00 41° NW 00:38:00 41° NW
Cosmos 2221 Rocket 3.5 00:37:05 10° N 00:41:30 85° E 00:42:00 70° SSE
Cosmos 2082 Rocket 2.1 00:40:40 52° SSW 00:42:08 85° ESE 00:47:53 10° NNE
Aureole 1 Rocket 3.5 00:43:26 51° W 00:43:53 53° WNW 00:49:22 10° N
SeaSat 1 2.8 00:39:21 10° NNE 00:44:08 52° WNW 00:45:02 45° W
Cosmos 1833 Rocket 3.0 00:44:54 43° WSW 00:46:08 52° WNW 00:51:37 10° NNE
Cosmos 1816 Rocket 4.4 00:40:29 10° N 00:46:50 75° W 00:49:17 40° S
COBE Rocket 4.3 00:44:24 27° SSE 00:47:02 63° ENE 00:51:54 10° N
IRS-1D 3.3 00:43:01 10° N 00:47:58 81° WNW 00:49:01 56° SSW
CZ-2D R/B 2.8 00:43:11 10° N 00:48:07 39° WNW 00:49:08 35° W
CZ-4B R/B 3.5 00:43:27 10° N 00:48:24 61° WNW 00:49:15 52° WSW
COSMOS 2406 4.3 00:49:39 28° W 00:51:14 32° WNW 00:56:23 10° N
Cosmos 1900 4.3 00:50:30 56° WSW 00:51:24 72° WNW 00:56:23 10° NNE
Cosmos 1140 Rocket 4.3 00:52:12 33° W 00:53:09 36° WNW 00:57:57 10° N
Cosmos 1656 3.8 00:50:53 10° NW 00:56:02 45° WSW 00:56:32 44° WSW
Cosmos 2233 Rocket 3.9 00:55:03 40° SSW 00:57:26 75° W 01:03:42 10° N
CBERS-1 4.1 00:56:10 10° N 01:01:14 61° WNW 01:02:41 43° SW
Cosmos 2360 4.3 00:57:08 10° NNW 01:02:53 78° ENE 01:08:37 10° SSE
SWAS 4.3 01:04:42 55° SSW 01:05:36 88° ESE 01:09:56 10° NNE
Cosmos 1850 Rocket 4.1 01:06:19 34° S 01:08:41 73° ESE 01:14:01 10° NNE
CZ-2D R/B 4.4 01:06:03 10° NNE 01:10:14 45° E 01:12:26 24° SSE
Cosmos 192 4.2 01:07:31 10° NNW 01:12:26 88° WSW 01:15:58 19° SSE
Cosmos 1666 3.7 01:13:11 31° WNW 01:13:11 31° WNW 01:16:26 10° NNW
Cosmos 1674 Rocket 3.5 01:08:44 10° N 01:13:06 82° E 01:15:15 29° SSE
ERBS 4.4 01:14:18 16° SE 01:14:55 17° ESE 01:17:06 10° E
USA 238 DEB 4.3 01:10:55 21° S 01:15:01 46° ESE 01:21:25 10° NE
USA 238 4.4 01:11:00 21° S 01:15:06 45° ESE 01:21:29 10° NE
Cosmos 1066 Rocket 4.3 01:09:47 10° N 01:15:41 90° S 01:20:21 17° S
ARIANE 5 R/B 2.5 01:15:17 10° NNE 01:20:25 89° WNW 01:23:10 29° SSW
IRS-1C 4.1 01:15:07 10° N 01:20:25 67° WNW 01:22:55 31° SSW
SL-08 R/B 3.2 01:22:19 20° S 01:25:37 81° WSW 01:30:28 10° NNW
CENTAUR R/B 4.0 01:21:12 10° SSE 01:25:47 27° ESE 01:31:02 10° NE
ADEOS II 2.6 01:21:29 10° N 01:26:26 43° WNW 01:28:37 28° WSW
Cosmos 1741 Rocket 3.9 01:23:57 31° SSW 01:26:31 81° WNW 01:31:46 10° NNE
Cosmos 1544 3.8 01:25:41 22° SSE 01:27:43 48° E 01:31:11 10° NNE
Cosmos 1743 2.6 01:27:29 39° SSW 01:28:46 75° W 01:32:36 10° N
CZ-3B R/B 4.4 01:23:49 23° SW 01:29:31 31° S 01:34:53 10° ESE
Cosmos 1733 Rocket 4.0 01:29:34 27° W 01:30:24 29° WNW 01:34:11 10° NNW
Resurs 1-4 Rocket 4.0 01:27:25 10° NNW 01:30:27 16° WNW 01:32:21 13° W
Cosmos 1908 Rocket 3.5 01:28:45 28° S 01:31:05 84° W 01:35:34 10° N
Spot 4 Rocket 4.0 01:27:15 10° NNE 01:32:26 83° ESE 01:36:00 21° S
ISS -1.0 01:32:49 10° NNW 01:35:31 22° NNE 01:38:13 10° E
Abrixas rocket 4.0 01:38:39 10° NW 01:41:13 28° NNE 01:43:47 10° E
ATLAS 5 CENTAUR R/B 2.5 01:40:34 10° NNW 01:46:32 84° NE 01:53:23 10° SSE
Gbstr 26 Del rocket 3.6 01:43:57 10° NW 01:48:24 69° NE 01:53:55 10° ESE
Cosmos 1242 Rocket 2.4 01:46:38 10° NNW 01:50:04 61° W 01:52:27 18° S
Cosmos 2369 4.4 01:46:08 10° NW 01:51:09 32° WSW 01:54:58 16° SSW
Cosmos 1980 Rocket 2.3 01:46:35 10° NNW 01:52:09 57° WSW 01:57:40 10° S
CSL-04 DEB 4.3 01:48:21 10° S 01:52:31 77° WSW 01:56:36 10° NNW
RUBIN 8/PSLV 4.5 01:50:43 10° N 01:55:01 80° WNW 01:58:26 16° SSW
SL-16 R/B 4.3 01:57:01 11° W 01:57:49 12° W 01:59:51 10° WNW
Cosmos 1378 3.6 01:55:51 10° NNW 01:59:22 40° W 02:01:47 18° SSW
IDEFIX/ARIANE 42P 2.7 01:57:03 10° N 02:02:09 61° WNW 02:06:34 14° SSW
Cosmos 1975 Rocket 3.3 01:59:57 10° N 02:04:24 75° E 02:08:51 10° SSE
Cosmos 1464 Rocket 4.2 01:59:22 13° SSW 02:05:01 59° W 02:11:18 10° N
H-2A R/B 2.0 02:02:29 10° S 02:06:54 73° WSW 02:11:13 10° NNW
MSX 3.8 02:03:32 10° N 02:09:17 80° WNW 02:15:01 10° SSW
PSLV R/B 4.0 02:06:36 10° NNE 02:10:54 63° E 02:15:12 10° S
Cosmos 2278 4.4 02:06:34 10° NW 02:11:37 33° WSW 02:16:37 10° SSW
Cosmos 1867 3.6 02:07:16 15° SW 02:11:51 77° WNW 02:17:19 10° NNE
CZ-4B R/B 3.7 02:09:42 10° SE 02:12:43 28° ENE 02:15:46 10° NNE
Cosmos 1975 3.2 02:10:01 15° SSW 02:13:07 45° W 02:16:58 10° N
NOSS 3-2 (C) 3.4 02:08:46 11° SSW 02:14:02 74° ESE 02:20:15 10° NE
Cosmos 2208 Rocket 4.4 02:08:51 10° NNW 02:14:14 71° ENE 02:19:31 10° SSE
ATLAS 3B R/B 4.3 02:08:52 10° SSE 02:14:16 27° ESE 02:19:39 10° NE
SL-16 R/B 2.8 02:09:02 10° NNW 02:14:41 62° ENE 02:20:17 10° SSE
Okean 2 Rocket 3.6 02:11:17 10° S 02:15:35 60° E 02:19:55 10° NNE
Cosmos 2034 Rocket 4.0 02:09:38 10° SSW 02:15:44 68° W 02:21:54 10° N
CZ-2C R/B 3.4 02:14:57 10° N 02:18:47 41° WNW 02:22:18 12° SW
Cosmos 1697 Rocket 4.2 02:16:31 10° WNW 02:19:43 16° W 02:22:17 12° SW
CZ-2C R/B 2.6 02:18:30 10° NNE 02:23:14 68° E 02:27:48 10° S
Cosmos 1814 Rocket 4.1 02:18:15 10° NNW 02:23:25 79° ENE 02:28:34 10° SSE
SL-27 R/B 3.3 02:20:46 14° SW 02:23:25 34° WNW 02:26:38 10° N
CZ-4C R/B 3.4 02:21:52 10° SSW 02:24:53 36° W 02:27:52 10° NNW
Cosmos 1842 3.4 02:22:28 10° NNW 02:26:19 52° W 02:30:09 10° S
NOSS 3-2 (A) 3.7 02:21:24 12° SW 02:26:31 55° NW 02:32:43 10° NNE
Cosmos 2082 Rocket 4.2 02:23:57 10° W 02:26:58 14° NW 02:29:59 10° NNW
ERS-2 2.8 02:28:02 10° SSW 02:31:20 32° W 02:34:38 10° NNW
Cosmos 1763 Rocket 4.2 02:28:42 10° NW 02:33:24 33° W 02:38:06 10° SSW
Meteor 1-21 4.4 02:34:44 10° NNW 02:40:26 59° W 02:46:08 10° S
Cosmos 2151 Rocket 3.8 02:36:11 10° S 02:40:41 80° E 02:45:11 10° N
Okean 2 4.3 02:37:28 10° NNW 02:40:59 28° W 02:44:28 10° SSW
Cosmos 1300 Rocket 3.6 02:40:29 10° SSW 02:44:51 68° W 02:49:14 10° N
Cosmos 1570 Rocket 4.3 02:41:49 10° NNW 02:46:50 46° WSW 02:51:51 10° S
